Maxwell AFB, AL

2:38 PM CDT on March 30, 2017 (GMT -0500)
Maxwell Air Force Base

Weather History for KMXF - December, 2012

Change the Weather History Date:

Saturday, December 1, 2012

  Actual Average Record
Temperature  
Mean Temperature 60 °F -  
Max Temperature 73 °F 62 °F 77 °F (1998)
Min Temperature 46 °F 42 °F 28 °F (2011)
Degree Days  
Heating Degree Days 6    
Growing Degree Days 10 (Base 50)    
Moisture  
Dew Point 47 °F    
Average Humidity 89    
Maximum Humidity 100    
Minimum Humidity 37    
Precipitation  
Precipitation 0.00 in - - ()
Sea Level Pressure  
Sea Level Pressure 30.28 in    
Wind  
Wind Speed 1 mph (East)    
Max Wind Speed 9 mph    
Max Gust Speed -    
Visibility 4 miles    
Events Fog    
Averages and records for this station are not official NWS values.
T = Trace of Precipitation, MM = Missing Value Source: NWS Daily Summary

Daily Weather History Graph

Daily Weather History Graph

Search for Another Location

Airport or City:

Trip Planner

Search our weather history database for the weather conditions in past years. The results will help you decide how hot, cold, wet, or windy it might be!

Date:

Astronomy

Dec. 01, 2012 Rise Set
Actual Time 6:29 AM CST 4:39 PM CST
Civil Twilight 6:02 AM CST 5:06 PM CST
Nautical Twilight 5:32 AM CST 5:37 PM CST
Astronomical Twilight 5:02 AM CST 6:06 PM CST
Moon 7:26 PM CST (12/1) 8:43 AM CST (12/1)
Length of Visible Light 11h 04m
Length of Day
10h 10m
Waning Gibbous, 91% of the Moon is Illuminated
Dec 1
Waning Gibbous
Dec 6
Last Quarter
Dec 13
New
Dec 19
First Quarter
Dec 28
Full

Hourly Weather History & Observations

Time (CST) Temp. Dew Point Humidity Pressure Visibility Wind Dir Wind Speed Gust Speed Precip Events Conditions
12:46 AM 48.2 °F 46.4 °F 93% 30.27 in 2.0 mi Calm Calm - N/A   Scattered Clouds
12:50 AM 48.2 °F 46.4 °F 93% 30.27 in 1.2 mi Calm Calm - N/A   Scattered Clouds
12:51 AM 48.2 °F 46.4 °F 93% 30.27 in 1.2 mi Calm Calm - N/A   Scattered Clouds
12:55 AM 48.0 °F 47.5 °F 98% 30.27 in 1.8 mi Calm Calm - N/A   Mostly Cloudy
1:00 AM 48.2 °F 48.2 °F 100% 30.27 in 3.0 mi Calm Calm - N/A   Scattered Clouds
1:03 AM 48.2 °F 48.2 °F 100% 30.27 in 2.5 mi Calm Calm - N/A   Scattered Clouds
1:08 AM 48.2 °F 48.2 °F 100% 30.27 in 1.2 mi Calm Calm - N/A   Partly Cloudy
1:11 AM 48.2 °F 48.2 °F 100% 30.27 in 1.0 mi Calm Calm - N/A   Partly Cloudy
1:14 AM 48.2 °F 48.2 °F 100% 30.27 in 0.8 mi Calm Calm - N/A   Partly Cloudy
1:15 AM 48.2 °F 48.2 °F 100% 30.27 in 0.8 mi Calm Calm - N/A   Scattered Clouds
1:17 AM 48.2 °F 48.2 °F 100% 30.27 in 0.8 mi Calm Calm - N/A   Scattered Clouds
1:18 AM 48.2 °F 48.2 °F 100% 30.27 in 1.0 mi Calm Calm - N/A   Scattered Clouds
1:20 AM 48.2 °F 48.2 °F 100% 30.27 in 1.2 mi Calm Calm - N/A   Partly Cloudy
1:22 AM 48.2 °F 48.2 °F 100% 30.27 in 1.5 mi Calm Calm - N/A   Partly Cloudy
1:25 AM 50.0 °F 48.2 °F 94% 30.27 in 2.0 mi Calm Calm - N/A   Scattered Clouds
1:27 AM 50.0 °F 48.2 °F 94% 30.27 in 3.0 mi Calm Calm - N/A   Scattered Clouds
1:55 AM 47.8 °F 47.3 °F 98% 30.27 in 1.5 mi Calm Calm - N/A   Partly Cloudy
1:59 AM 48.2 °F 48.2 °F 100% 30.27 in 1.0 mi Calm Calm - N/A   Partly Cloudy
2:01 AM 48.2 °F 48.2 °F 100% 30.27 in 1.0 mi Calm Calm - N/A   Clear
2:02 AM 48.2 °F 48.2 °F 100% 30.27 in 0.8 mi Calm Calm - N/A   Clear
2:05 AM 48.2 °F 48.2 °F 100% 30.27 in 0.8 mi Calm Calm - N/A   Clear
2:07 AM 48.2 °F 48.2 °F 100% 30.27 in 0.8 mi Calm Calm - N/A   Clear
2:10 AM 48.2 °F 48.2 °F 100% 30.27 in 0.5 mi Calm Calm - N/A Fog Fog
2:14 AM 46.4 °F 46.4 °F 100% 30.27 in 0.5 mi Calm Calm - N/A Fog Fog
2:17 AM 46.4 °F 44.6 °F 93% 30.27 in 0.5 mi Calm Calm - N/A Fog Fog
2:27 AM 48.2 °F 46.4 °F 93% 30.27 in 0.2 mi Calm Calm - N/A Fog Fog
2:36 AM 48.2 °F 46.4 °F 93% 30.27 in 0.2 mi Calm Calm - N/A Fog Fog
2:37 AM 48.2 °F 46.4 °F 93% 30.27 in 0.5 mi Calm Calm - N/A Fog Fog
2:41 AM 48.2 °F 46.4 °F 93% 30.27 in 0.8 mi Calm Calm - N/A   Clear
2:45 AM 48.2 °F 46.4 °F 93% 30.27 in 4.0 mi Calm Calm - N/A   Partly Cloudy
2:52 AM 46.4 °F 44.6 °F 93% 30.28 in 2.5 mi Calm Calm - N/A   Scattered Clouds
2:55 AM 46.0 °F 45.5 °F 98% 30.28 in 1.2 mi Calm Calm - N/A   Scattered Clouds
2:57 AM 46.4 °F 46.4 °F 100% 30.28 in 0.8 mi Calm Calm - N/A   Mostly Cloudy
2:59 AM 46.4 °F 46.4 °F 100% 30.28 in 0.5 mi Calm Calm - N/A Fog Fog
3:00 AM 46.4 °F 46.4 °F 100% 30.28 in 0.5 mi Calm Calm - N/A Fog Fog
3:02 AM 46.4 °F 46.4 °F 100% 30.28 in 0.5 mi Calm Calm - N/A Fog Fog
3:04 AM 46.4 °F 46.4 °F 100% 30.28 in 0.5 mi Calm Calm - N/A Fog Fog
3:05 AM 46.4 °F 46.4 °F 100% 30.28 in 0.8 mi Calm Calm - N/A   Mostly Cloudy
3:12 AM 46.4 °F 46.4 °F 100% 30.28 in 3.0 mi Calm Calm - N/A   Overcast
3:27 AM 48.2 °F 46.4 °F 93% 30.28 in 1.0 mi Calm Calm - N/A   Overcast
3:37 AM 46.4 °F 46.4 °F 100% 30.28 in 4.0 mi Calm Calm - N/A   Mostly Cloudy
3:55 AM 47.5 °F 46.9 °F 98% 30.28 in 9.0 mi Calm Calm - N/A   Mostly Cloudy
4:55 AM 47.1 °F 46.4 °F 97% 30.29 in 4.0 mi Calm Calm - N/A   Clear
5:55 AM 46.9 °F 46.0 °F 97% 30.30 in 10.0 mi NNE 4.6 mph - N/A   Clear
6:30 AM 46.4 °F 44.6 °F 93% 30.32 in 1.2 mi Calm Calm - N/A   Clear
6:34 AM 46.4 °F 44.6 °F 93% 30.32 in 1.0 mi Calm Calm - N/A   Clear
6:39 AM 46.4 °F 44.6 °F 93% 30.32 in 2.0 mi Calm Calm - N/A   Clear
6:43 AM 46.4 °F 44.6 °F 93% 30.32 in 3.0 mi Calm Calm - N/A   Clear
6:55 AM 46.4 °F 45.7 °F 97% 30.32 in 7.0 mi Calm Calm - N/A   Clear
7:55 AM 49.3 °F 47.8 °F 95% 30.32 in 10.0 mi NE 3.5 mph - N/A   Partly Cloudy
8:55 AM 55.6 °F 50.4 °F 83% 30.34 in 10.0 mi NNE 4.6 mph - N/A   Clear
9:55 AM 61.0 °F 51.4 °F 71% 30.34 in 10.0 mi Calm Calm - N/A   Mostly Cloudy
10:55 AM 66.7 °F 52.7 °F 61% 30.32 in 10.0 mi Calm Calm - N/A   Mostly Cloudy
11:55 AM 73.4 °F 48.9 °F 42% 30.29 in 10.0 mi East 9.2 mph - N/A   Clear
12:55 PM 73.9 °F 48.6 °F 41% 30.26 in 10.0 mi Variable 6.9 mph - N/A   Scattered Clouds
1:55 PM 71.8 °F 48.4 °F 43% 30.25 in 10.0 mi East 5.8 mph - N/A   Scattered Clouds
2:55 PM 73.9 °F 46.2 °F 37% 30.24 in 10.0 mi South 4.6 mph - N/A   Clear
3:55 PM 72.1 °F 46.4 °F 40% 30.24 in 10.0 mi SE 3.5 mph - N/A   Clear
4:55 PM 65.1 °F 47.1 °F 52% 30.25 in 10.0 mi SE 3.5 mph - N/A   Clear
5:55 PM 60.4 °F 47.3 °F 62% 30.26 in 10.0 mi SE 3.5 mph - N/A   Clear
6:55 PM 57.6 °F 47.7 °F 70% 30.27 in 10.0 mi SSE 3.5 mph - N/A   Clear
7:55 PM 55.4 °F 47.7 °F 75% 30.27 in 10.0 mi Calm Calm - N/A   Clear
8:55 PM 54.0 °F 47.3 °F 78% 30.27 in 10.0 mi Calm Calm - N/A   Clear
9:55 PM 50.7 °F 48.7 °F 93% 30.28 in 10.0 mi Calm Calm - N/A   Clear
10:55 PM 50.7 °F 48.0 °F 90% 30.29 in 10.0 mi NW 3.5 mph - N/A   Clear
11:55 PM 48.2 °F 46.6 °F 94% 30.28 in 7.0 mi North 3.5 mph - N/A   Clear